Meteo pe oră la Dabrowy

Astăzi, 11 Aprilie, Duminică

Timp Temperatura Precipitaţii Vânt Presiune Umiditate
00:00 +7°C° 0 mm 1 m/s 751 mmHg 93%
01:00 +7°C° 0 mm 1 m/s 751 mmHg 94%
02:00 +7°C° 0 mm 1 m/s 751 mmHg 94%
03:00 +7°C° 0 mm 1 m/s 751 mmHg 94%
04:00 +7°C° 0 mm 1 m/s 751 mmHg 94%
05:00 +8°C° 0 mm 1 m/s 752 mmHg 93%
06:00 +8°C° 0 mm 1 m/s 752 mmHg 91%
07:00 +8°C° 0 mm 2 m/s 752 mmHg 89%
08:00 +10°C° 0 mm 3 m/s 752 mmHg 80%
09:00 +13°C° 0 mm 4 m/s 751 mmHg 70%
10:00 +15°C° 0 mm 5 m/s 751 mmHg 60%
11:00 +16°C° 0 mm 5 m/s 751 mmHg 55%
12:00 +16°C° 0 mm 6 m/s 751 mmHg 50%
13:00 +17°C° 0 mm 7 m/s 751 mmHg 44%
14:00 +17°C° 0 mm 7 m/s 750 mmHg 47%
15:00 +17°C° 0 mm 7 m/s 750 mmHg 49%
16:00 +17°C° 0 mm 6 m/s 750 mmHg 51%
17:00 +15°C° 0 mm 6 m/s 750 mmHg 54%
18:00 +14°C° 0 mm 6 m/s 750 mmHg 57%
19:00 +13°C° 0 mm 5 m/s 750 mmHg 59%
20:00 +13°C° 0 mm 5 m/s 750 mmHg 61%
21:00 +12°C° 0 mm 5 m/s 751 mmHg 62%
22:00 +12°C° 0 mm 5 m/s 751 mmHg 63%
23:00 +10°C° 0 mm 5 m/s 751 mmHg 66%

Mâine, 12 Aprilie, Luni

Timp Temperatura Precipitaţii Vânt Presiune Umiditate
00:00 +10°C° 0 mm 5 m/s 751 mmHg 69%
01:00 +11°C° 0 mm 4 m/s 751 mmHg 72%
02:00 +10°C° 0 mm 4 m/s 751 mmHg 73%
03:00 +10°C° 0 mm 4 m/s 751 mmHg 73%
04:00 +10°C° 0 mm 4 m/s 751 mmHg 73%
05:00 +10°C° 0 mm 4 m/s 751 mmHg 74%
06:00 +9°C° 0 mm 5 m/s 751 mmHg 75%
07:00 +9°C° 0 mm 5 m/s 751 mmHg 76%
08:00 +10°C° 0 mm 4 m/s 751 mmHg 76%
09:00 +11°C° 0 mm 4 m/s 751 mmHg 76%
10:00 +11°C° 0 mm 4 m/s 751 mmHg 75%
11:00 +12°C° 0 mm 4 m/s 751 mmHg 73%
12:00 +12°C° 0 mm 3 m/s 751 mmHg 71%
13:00 +13°C° 0 mm 3 m/s 751 mmHg 68%
14:00 +12°C° 0.2 mm 3 m/s 751 mmHg 74%
15:00 +13°C° 0.2 mm 2 m/s 750 mmHg 79%
16:00 +12°C° 0.2 mm 2 m/s 750 mmHg 85%
17:00 +9°C° 0.4 mm 3 m/s 751 mmHg 87%
18:00 +6°C° 0.4 mm 4 m/s 751 mmHg 90%
19:00 +3°C° 0.4 mm 5 m/s 752 mmHg 92%
20:00 +2°C° 0.2 mm 5 m/s 752 mmHg 92%
21:00 +2°C° 0.2 mm 5 m/s 753 mmHg 92%
22:00 +1°C° 0.2 mm 5 m/s 753 mmHg 93%
23:00 +1°C° 0 mm 5 m/s 753 mmHg 91%

Poimâine, 13 Aprilie, Marţi

Timp Temperatura Precipitaţii Vânt Presiune Umiditate
00:00 +1°C° 0 mm 5 m/s 754 mmHg 89%
01:00 +1°C° 0 mm 4 m/s 754 mmHg 88%
02:00 +1°C° 0 mm 4 m/s 754 mmHg 87%
03:00 +1°C° 0 mm 4 m/s 754 mmHg 86%
04:00 +1°C° 0 mm 4 m/s 755 mmHg 86%
05:00 +1°C° 0 mm 4 m/s 755 mmHg 84%
06:00 +3°C° 0 mm 4 m/s 755 mmHg 82%
07:00 +3°C° 0 mm 4 m/s 755 mmHg 79%
08:00 +4°C° 0 mm 4 m/s 756 mmHg 70%
09:00 +5°C° 0 mm 4 m/s 756 mmHg 62%
10:00 +6°C° 0 mm 4 m/s 756 mmHg 53%
11:00 +7°C° 0 mm 4 m/s 756 mmHg 49%
12:00 +7°C° 0 mm 4 m/s 756 mmHg 46%
13:00 +8°C° 0 mm 4 m/s 756 mmHg 42%
14:00 +8°C° 0 mm 5 m/s 756 mmHg 44%
15:00 +7°C° 0 mm 5 m/s 755 mmHg 45%
16:00 +7°C° 0 mm 5 m/s 755 mmHg 46%
17:00 +6°C° 0 mm 4 m/s 755 mmHg 49%
18:00 +5°C° 0 mm 4 m/s 756 mmHg 51%
19:00 +5°C° 0 mm 4 m/s 756 mmHg 53%
20:00 +4°C° 0 mm 4 m/s 756 mmHg 58%
21:00 +3°C° 0 mm 4 m/s 756 mmHg 63%
22:00 +3°C° 0 mm 4 m/s 756 mmHg 67%
23:00 +1°C° 0 mm 4 m/s 756 mmHg 70%

14 Aprilie, Miercuri

Timp Temperatura Precipitaţii Vânt Presiune Umiditate
00:00 +1°C° 0 mm 4 m/s 755 mmHg 72%
01:00 +1°C° 0 mm 4 m/s 755 mmHg 74%
02:00 +1°C° 0 mm 4 m/s 755 mmHg 77%
03:00 0°C° 0 mm 4 m/s 755 mmHg 80%
04:00 0°C° 0 mm 4 m/s 755 mmHg 83%
05:00 +1°C° 0 mm 4 m/s 754 mmHg 81%
06:00 +1°C° 0 mm 4 m/s 754 mmHg 78%
07:00 +2°C° 0 mm 5 m/s 754 mmHg 76%
08:00 +2°C° 0 mm 5 m/s 754 mmHg 69%
09:00 +3°C° 0 mm 5 m/s 754 mmHg 62%
10:00 +4°C° 0 mm 6 m/s 754 mmHg 55%
11:00 +5°C° 0 mm 6 m/s 754 mmHg 53%
12:00 +5°C° 0 mm 6 m/s 754 mmHg 51%
13:00 +6°C° 0 mm 7 m/s 753 mmHg 49%
14:00 +7°C° 0 mm 6 m/s 753 mmHg 52%
15:00 +7°C° 0 mm 6 m/s 753 mmHg 55%
16:00 +7°C° 0 mm 6 m/s 753 mmHg 58%
17:00 +5°C° 0 mm 6 m/s 753 mmHg 60%
18:00 +4°C° 0 mm 6 m/s 753 mmHg 61%
19:00 +3°C° 0 mm 6 m/s 753 mmHg 63%
20:00 +2°C° 0.1 mm 6 m/s 753 mmHg 69%
21:00 +2°C° 0.1 mm 6 m/s 753 mmHg 75%
22:00 +1°C° 0.1 mm 6 m/s 753 mmHg 82%
23:00 +1°C° 0.3 mm 6 m/s 753 mmHg 86%

15 Aprilie, Joi

Timp Temperatura Precipitaţii Vânt Presiune Umiditate
00:00 -1°C° 0.3 mm 6 m/s 753 mmHg 91%
01:00 -1°C° 0.3 mm 6 m/s 752 mmHg 95%
02:00 -1°C° 0.2 mm 6 m/s 752 mmHg 96%
03:00 -1°C° 0.2 mm 6 m/s 752 mmHg 96%
04:00 -1°C° 0.2 mm 6 m/s 752 mmHg 96%
05:00 -1°C° 0.1 mm 6 m/s 752 mmHg 96%
06:00 -1°C° 0.1 mm 6 m/s 753 mmHg 96%
07:00 -1°C° 0.1 mm 6 m/s 753 mmHg 96%
08:00 -1°C° 0.1 mm 6 m/s 753 mmHg 96%
09:00 -1°C° 0.1 mm 6 m/s 753 mmHg 95%
10:00 0°C° 0.1 mm 5 m/s 754 mmHg 95%
11:00 +1°C° 0.1 mm 5 m/s 754 mmHg 94%
12:00 +1°C° 0.1 mm 5 m/s 754 mmHg 93%
13:00 +1°C° 0.1 mm 5 m/s 754 mmHg 92%
14:00 +1°C° 0 mm 5 m/s 754 mmHg 89%
15:00 +2°C° 0 mm 5 m/s 754 mmHg 86%
16:00 +2°C° 0 mm 5 m/s 754 mmHg 83%
17:00 +3°C° 0 mm 4 m/s 754 mmHg 85%
18:00 +3°C° 0 mm 3 m/s 754 mmHg 86%
19:00 +4°C° 0 mm 2 m/s 754 mmHg 87%
20:00 +3°C° 0 mm 3 m/s 755 mmHg 88%
21:00 +2°C° 0 mm 3 m/s 755 mmHg 88%
22:00 +1°C° 0 mm 4 m/s 755 mmHg 89%
23:00 +1°C° 0 mm 4 m/s 755 mmHg 90%

16 Aprilie, Vineri

Timp Temperatura Precipitaţii Vânt Presiune Umiditate
00:00 +1°C° 0 mm 4 m/s 754 mmHg 92%
01:00 +1°C° 0 mm 5 m/s 754 mmHg 94%
02:00 +1°C° 0 mm 5 m/s 754 mmHg 95%
03:00 +1°C° 0 mm 5 m/s 754 mmHg 95%
04:00 +1°C° 0 mm 5 m/s 754 mmHg 96%
05:00 0°C° 0.3 mm 5 m/s 754 mmHg 96%
06:00 0°C° 0.3 mm 5 m/s 755 mmHg 96%
07:00 0°C° 0.3 mm 5 m/s 755 mmHg 96%
08:00 0°C° 0.4 mm 5 m/s 755 mmHg 96%
09:00 +1°C° 0.4 mm 5 m/s 755 mmHg 95%
10:00 +1°C° 0.4 mm 4 m/s 756 mmHg 94%
11:00 +1°C° 0.4 mm 4 m/s 756 mmHg 94%
12:00 +3°C° 0.4 mm 4 m/s 756 mmHg 93%
13:00 +3°C° 0.4 mm 4 m/s 756 mmHg 93%
14:00 +4°C° 0.1 mm 4 m/s 757 mmHg 93%
15:00 +4°C° 0.1 mm 4 m/s 757 mmHg 92%
16:00 +4°C° 0.1 mm 4 m/s 757 mmHg 92%
17:00 +4°C° 0 mm 4 m/s 757 mmHg 92%
18:00 +4°C° 0 mm 4 m/s 758 mmHg 92%
19:00 +5°C° 0 mm 4 m/s 758 mmHg 92%
20:00 +4°C° 0 mm 4 m/s 758 mmHg 91%
21:00 +4°C° 0 mm 4 m/s 759 mmHg 90%
22:00 +4°C° 0 mm 4 m/s 759 mmHg 90%
23:00 +4°C° 0 mm 4 m/s 759 mmHg 89%
Arată mai mult

Formular de consimțământ

Meteoprog și furnizorii noștri de servicii pot stoca și accesa date personale, precum cookies, identificatori de dispozitiv sau alte tehnologii similare pe dispozitivul dumneavoastră și procesa astfel de date pentru a personaliza conținutul și reclamele, dar și pentru a oferi caracteristici de social media și pentru a analiza traficul.

  • Stocarea și/sau accesarea informațiilor pe dispozitivul dumneavoastră

    Cookies, identificatori de dispozitiv sau alte informații pot fi stocate sau accesate pe dispozitiv în scopurile indicate mai sus.

  • Reclame și conținut personalizat, evaluarea reclamelor și a conținutului, informații despre audiențe și dezvoltarea produselor

    Reclamele și conținutul pot fi personalizate pe baza unui profil. Pot fi adăugate date suplimentare pentru a personaliza mai bine reclamele și conținutul. Performanța reclamelor și conținutului poate fi măsurată. Pot fi obținute informații despre utilizatorii care au văzut reclamele și conținutul. Aceste date pot fi utilizate pentru a dezvolta sau îmbunătăți experiența utilizatorilor, sistemele și software-ul.

Dând clic pe ‘Sunt de acord’, permiteți utilizarea cookie-urilor menționate, a identificatorilor de dispozitiv, balizelor web sau altor tehnologii similare. Setările pot fi modificate din browser-ul dispozitivului dumneavoastră.

În anumite scopuri, interesele legitime pot prima asupra consimțământului. Puteți citi mai multe informații în acest sens în Politica privind Confidențialitatea Datelor și Cookie.